Weather reports worldwide

Advertisment
Helgoland, Germany (10015): temperature & dewpoint: 12.10.2018 03:00:00 - 18.10.2018 03:00:00 (CEST)Helgoland, Germany (10015): temperature 5cm: 12.10.2018 03:00:00 - 18.10.2018 03:00:00 (CEST)Helgoland, Germany (10015): wind speed & gusts: 12.10.2018 03:00:00 - 18.10.2018 03:00:00 (CEST)Helgoland, Germany (10015): wind direction: 12.10.2018 03:00:00 - 18.10.2018 03:00:00 (CEST)Helgoland, Germany (10015): reduced air pressure: 12.10.2018 03:00:00 - 18.10.2018 03:00:00 (CEST)Helgoland, Germany (10015): visibility: 12.10.2018 03:00:00 - 18.10.2018 03:00:00 (CEST)Helgoland, Germany (10015): sunshine duration: 12.10.2018 03:00:00 - 18.10.2018 03:00:00 (CEST)Helgoland, Germany (10015): precipitation: 12.10.2018 03:00:00 - 18.10.2018 03:00:00 (CEST)
Date & Time tt [°C] td [°C] tt 5cm [°C] ff [km/h] ff [kn] fx [km/h] fx [kn] dd ppp [hPa] vv [km] sd [min] rr [mm]
18.10.2018 03:00:00 14,3 11,3 12,8 16 9 24 13 NW 1021,2 40 0 0,0
18.10.2018 02:00:00 14,6 11,6 13,3 18 10 25 13 NW 1021,2 46 0 0,0
18.10.2018 01:00:00 14,7 12,2 13,2 16 9 21 11 NW 1021,1 35 0 0,0
18.10.2018 00:00:00 14,9 12,2 13,5 16 9 22 12 WNW 1020,7 49 0 0,0
17.10.2018 23:00:00 15,0 11,8 13,4 16 9 20 11 W 1020,6 48 0 0,0
17.10.2018 22:00:00 15,0 11,7 13,4 16 8 18 10 W 1020,6 60 0 0,0
17.10.2018 21:00:00 14,8 12,3 12,9 11 6 21 11 WNW 1020,3 38 0 0,0
17.10.2018 20:00:00 15,3 12,5 13,8 16 8 19 11 WNW 1020,1 36 0 0,0
17.10.2018 19:00:00 15,4 13,6 13,8 14 7 22 12 WNW 1019,6 31 0 0,0
17.10.2018 18:00:00 15,7 13,9 15,1 19 10 24 13 WNW 1019,4 25 5 0,0
17.10.2018 17:00:00 16,0 14,5 16,6 18 10 23 13 WNW 1019,1 18 25 0,0
17.10.2018 16:00:00 16,3 14,8 17,6 12 6 15 8 W 1018,8 6 31 0,0
17.10.2018 15:00:00 15,8 14,3 17,2 10 5 17 9 WSW 1018,7 3,3 4 0,0
17.10.2018 14:00:00 15,7 13,9 16,6 14 7 19 11 WSW 1018,5 4,4 0 0,0
17.10.2018 13:00:00 15,6 13,0 16,9 14 7 20 11 WSW 1018,5 7 29 0,0
17.10.2018 12:00:00 16,1 12,7 18,7 17 9 22 12 SSW 1018,6 8 59 0,0
17.10.2018 11:00:00 16,1 12,8 18,0 19 10 24 13 S 1018,2 10 38 0,0
17.10.2018 10:00:00 15,7 12,7 15,0 19 11 23 12 S 1017,8 10 3 0,0
17.10.2018 09:00:00 15,5 12,8 13,8 18 10 23 13 S 1017,6 10 0 0,0
17.10.2018 08:00:00 15,5 13,0 13,8 20 11 24 13 S 1017,4 9 0 0,0
17.10.2018 07:00:00 16,0 13,0 14,2 18 10 32 17 SSW 1017,4 12 0 0,0
17.10.2018 06:00:00 16,1 13,3 14,7 22 12 27 15 S 1017,0 9 0 0,0
17.10.2018 05:00:00 16,3 13,2 14,6 22 12 29 16 S 1017,1 10 0 0,0
17.10.2018 04:00:00 16,4 13,3 14,7 22 12 29 16 S 1017,2 11 0 0,0
17.10.2018 03:00:00 15,9 13,8 14,6 21 11 24 13 S 1017,6 7 0 0,0
17.10.2018 02:00:00 16,3 13,8 14,9 17 9 20 11 S 1017,9 10 0 0,0
17.10.2018 01:00:00 16,5 13,9 14,8 17 9 26 14 S 1017,9 9 0 0,0
17.10.2018 00:00:00 16,2 14,4 14,5 23 12 26 14 S 1017,9 8 0 0,0
16.10.2018 23:00:00 16,2 14,6 14,5 23 13 27 15 SSE 1018,2 6 0 0,0
16.10.2018 22:00:00 15,8 14,6 14,5 22 12 27 15 SSE 1018,3 5 0 0,0
16.10.2018 21:00:00 15,6 14,5 14,5 22 12 24 13 SE 1018,4 6 0 0,0
16.10.2018 20:00:00 15,1 14,3 14,1 18 10 21 11 SE 1018,6 4,9 0 0,0
16.10.2018 19:00:00 14,1 14,0 13,5 14 7 16 9 SE 1018,5 5 0 0,0
16.10.2018 18:00:00 13,7 13,7 13,8 5 3 9 5 SSE 1018,2 0,2 0 0,0
16.10.2018 17:00:00 14,1 14,1 14,8 8 4 16 9 SW 1018,3 0,1 0 0,0
16.10.2018 16:00:00 14,3 14,1 15,4 16 9 23 12 SW 1018,3 0,2 0 0,0
16.10.2018 15:00:00 15,2 14,5 16,5 18 10 28 15 SW 1018,2 2,8 14 0,0
16.10.2018 14:00:00 15,9 14,6 18,9 19 11 23 13 SW 1018,0 4,4 16 0,0
16.10.2018 13:00:00 15,8 14,7 16,4 15 8 19 10 SW 1017,9 4,1 0 0,0
16.10.2018 12:00:00 15,8 14,9 16,1 16 8 21 12 WSW 1017,9 4,2 0 0,0
16.10.2018 11:00:00 15,8 14,9 16,0 17 9 23 12 WSW 1017,5 4,1 0 0,0
16.10.2018 10:00:00 15,8 14,7 16,0 14 8 19 11 WSW 1017,1 4,7 0 0,0
16.10.2018 09:00:00 15,7 14,5 15,2 17 9 23 12 WSW 1016,8 4,1 0 0,0
16.10.2018 08:00:00 15,7 14,5 14,3 17 9 22 12 SW 1016,3 4,6 0 0,0
16.10.2018 07:00:00 15,7 14,1 14,3 13 7 18 10 SSW 1015,7 6 0 0,0
16.10.2018 06:00:00 15,9 14,0 15,0 14 8 18 10 SW 1015,5 7 0 0,0
16.10.2018 05:00:00 15,5 13,7 13,6 9 5 11 6 SW 1015,4 7 0 0,0
16.10.2018 04:00:00 15,7 13,9 14,1 10 5 15 8 SSW 1015,3 6 0 0,0
16.10.2018 03:00:00 15,4 14,4 14,2 9 5 16 8 S 1015,4 3,4 0 0,0
16.10.2018 02:00:00 15,1 14,2 14,1 13 7 15 8 SE 1015,1 3,6 0 0,0
16.10.2018 01:00:00 15,1 14,1 12,5 5 3 9 5 N 1014,9 2,8 0 0,0
16.10.2018 00:00:00 15,5 14,3 13,7 6 3 10 5 NNE 1014,6 3,5 0 0,0
15.10.2018 23:00:00 16,3 13,0 14,9 8 4 10 5 NNW 1014,6 8 0 0,0
15.10.2018 22:00:00 16,8 12,7 15,7 5 3 7 4 NNW 1014,1 13 0 0,0
15.10.2018 21:00:00 16,4 14,0 15,2 2 1 6 4 NW 1013,8 12 0 0,0
15.10.2018 20:00:00 16,9 13,7 16,0 4 2 7 4 W 1013,7 14 0 0,0
15.10.2018 19:00:00 16,2 14,0 13,8 4 2 8 4 SSE 1013,3 10 0 0,0
15.10.2018 18:00:00 17,2 13,6 15,4 6 3 11 6 S 1012,7 13 60 0,0
15.10.2018 17:00:00 17,2 13,6 20,5 11 6 11 6 SE 1012,4 11 60 0,0
15.10.2018 16:00:00 18,5 13,8 21,1 6 4 15 8 S 1012,0 12 60 0,0
15.10.2018 15:00:00 16,9 13,4 20,1 14 8 18 10 S 1011,8 13 60 0,0
15.10.2018 14:00:00 16,3 13,2 19,2 14 8 19 10 S 1012,0 12 60 0,0
15.10.2018 13:00:00 16,2 12,6 19,7 16 8 20 11 S 1012,0 14 60 0,0
15.10.2018 12:00:00 16,6 12,5 19,3 14 8 20 11 S 1012,0 15 60 0,0
15.10.2018 11:00:00 16,1 12,4 18,3 16 9 24 13 S 1011,7 16 60 0,0
15.10.2018 10:00:00 15,6 12,6 16,2 22 12 27 15 SSE 1011,4 16 60 0,0
15.10.2018 09:00:00 15,4 12,8 14,3 19 11 24 13 S 1011,2 16 15 0,0
15.10.2018 08:00:00 15,3 13,0 13,5 16 9 23 13 SSE 1010,8 14 0 0,0
15.10.2018 07:00:00 15,6 13,0 13,9 17 9 21 11 S 1010,3 19 0 0,0
15.10.2018 06:00:00 15,8 13,0 14,2 17 9 25 14 S 1010,2 18 0 0,0
15.10.2018 05:00:00 15,9 13,0 14,4 21 12 26 14 S 1010,1 21 0 0,0
15.10.2018 04:00:00 16,1 13,1 14,5 19 10 26 14 S 1010,0 22 0 0,0
15.10.2018 03:00:00 16,5 13,0 15,0 22 12 27 14 S 1009,9 26 0 0,0
15.10.2018 02:00:00 16,6 13,0 15,2 25 14 32 17 S 1009,8 26 0 0,0
15.10.2018 01:00:00 16,9 12,8 15,6 30 16 36 19 S 1009,5 26 0 0,0
15.10.2018 00:00:00 17,0 12,8 16,3 29 16 36 19 SSE 1009,3 25 0 0,0
14.10.2018 23:00:00 17,1 12,9 15,9 31 17 39 21 SSE 1009,2 29 0 0,0
14.10.2018 22:00:00 18,4 12,8 17,7 37 20 45 24 SSE 1008,8 33 0 0,0
14.10.2018 21:00:00 17,9 13,3 17,3 34 18 40 21 SSE 1008,7 32 0 0,0
14.10.2018 20:00:00 18,0 13,4 16,7 32 17 36 19 SSE 1008,4 32 0 0,0
14.10.2018 19:00:00 17,6 13,4 16,1 29 16 32 18 SSE 1008,1 25 0 0,0
14.10.2018 18:00:00 17,7 13,5 16,6 28 15 44 24 SSE 1007,7 23 52 0,0
14.10.2018 17:00:00 18,4 13,2 19,3 36 19 42 23 SSE 1007,6 23 60 0,0
14.10.2018 16:00:00 18,0 13,1 19,4 35 19 40 22 SSE 1007,7 18 60 0,0
14.10.2018 15:00:00 17,4 12,8 19,6 35 19 40 22 SSE 1008,1 20 60 0,0
14.10.2018 14:00:00 16,8 12,7 19,1 34 18 38 20 SSE 1008,6 18 60 0,0
14.10.2018 13:00:00 16,5 12,2 19,0 33 18 40 22 SSE 1009,4 18 60 0,0
14.10.2018 12:00:00 15,7 11,6 18,2 32 17 37 20 SSE 1009,9 19 60 0,0
14.10.2018 11:00:00 15,4 11,5 17,2 28 15 37 20 SSE 1010,5 20 60 0,0
14.10.2018 10:00:00 15,2 11,5 15,8 37 20 42 23 SSE 1010,5 19 60 0,0
14.10.2018 09:00:00 15,2 11,7 14,2 35 19 41 22 SSE 1010,6 19 18 0,0
14.10.2018 08:00:00 15,3 11,8 13,8 34 19 41 22 SSE 1010,7 20 0 0,0
14.10.2018 07:00:00 15,8 12,0 14,2 36 19 40 22 SSE 1011,0 22 0 0,0
14.10.2018 06:00:00 16,0 12,3 14,5 32 18 39 21 SSE 1011,5 16 0 0,0
14.10.2018 05:00:00 16,2 12,6 14,7 31 17 36 20 SSE 1012,0 25 0 0,0
14.10.2018 04:00:00 16,5 12,8 14,9 31 17 36 20 SSE 1012,8 31 0 0,0
14.10.2018 03:00:00 17,0 12,6 15,4 29 16 37 20 SSE 1013,4 33 0 0,0
14.10.2018 02:00:00 17,1 12,8 15,5 30 16 36 19 SSE 1013,7 35 0 0,0
14.10.2018 01:00:00 17,1 12,7 15,4 32 17 37 20 SSE 1014,0 34 0 0,0
14.10.2018 00:00:00 17,4 12,7 15,9 32 17 42 23 SSE 1014,3 35 0 0,0
13.10.2018 23:00:00 18,0 12,5 16,7 37 20 46 25 SSE 1014,4 39 0 0,0
13.10.2018 22:00:00 18,7 13,0 17,2 40 22 46 25 SSE 1014,5 35 0 0,0
13.10.2018 21:00:00 18,5 13,7 17,0 36 19 40 21 SSE 1014,9 36 0 0,0
13.10.2018 20:00:00 18,3 14,2 17,0 33 18 36 19 SE 1015,5 37 0 0,0
13.10.2018 19:00:00 18,6 14,2 17,2 31 17 35 19 SSE 1015,7 38 0 0,0
13.10.2018 18:00:00 18,5 14,2 17,5 32 17 36 19 SE 1015,8 31 58 0,0
13.10.2018 17:00:00 19,1 14,5 20,1 31 17 34 19 SSE 1016,3 29 60 0,0
13.10.2018 16:00:00 18,5 14,6 20,3 29 16 36 19 SSE 1017,0 21 60 0,0
13.10.2018 15:00:00 18,3 14,5 21,5 22 12 28 15 SSE 1017,7 19 60 0,0
13.10.2018 14:00:00 18,1 14,5 20,2 26 14 31 17 SSE 1018,4 20 60 0,0
13.10.2018 13:00:00 17,8 14,1 19,7 26 14 34 19 S 1018,7 26 60 0,0
13.10.2018 12:00:00 16,7 13,8 18,3 25 14 32 18 SSE 1018,9 19 60 0,0
13.10.2018 11:00:00 16,3 13,4 17,2 28 15 41 22 S 1019,1 17 60 0,0
13.10.2018 10:00:00 16,3 13,4 16,6 33 18 40 21 S 1019,0 17 51 0,0
13.10.2018 09:00:00 16,1 13,6 15,4 33 18 41 22 SSE 1018,8 20 0 0,0
13.10.2018 08:00:00 16,2 13,8 15,1 33 18 41 22 SSE 1018,8 19 0 0,0
13.10.2018 07:00:00 16,2 14,0 15,0 35 19 40 22 SSE 1018,6 16 0 0,0
13.10.2018 06:00:00 16,6 14,0 15,4 29 15 32 17 S 1019,1 24 0 0,0
13.10.2018 05:00:00 16,3 14,2 15,0 26 14 33 18 S 1019,0 22 0 0,0
13.10.2018 04:00:00 16,7 14,0 15,5 25 14 36 19 S 1019,1 26 0 0,0
13.10.2018 03:00:00 17,1 13,8 15,9 30 16 38 20 S 1018,7 29 0 0,0
13.10.2018 02:00:00 16,8 13,8 15,7 29 16 35 19 S 1018,3 26 0 0,0
13.10.2018 01:00:00 17,1 13,9 16,0 30 16 40 22 S 1018,7 24 0 0,0
13.10.2018 00:00:00 17,1 13,8 15,9 33 18 38 21 S 1018,7 27 0 0,0
12.10.2018 23:00:00 16,6 13,8 15,6 32 17 39 21 SSE 1018,9 25 0 0,0
12.10.2018 22:00:00 17,2 14,0 16,0 32 18 37 20 SSE 1018,7 30 0 0,0
12.10.2018 21:00:00 17,3 14,0 16,1 31 17 36 19 SSE 1018,8 31 0 0,0
12.10.2018 20:00:00 17,2 14,0 16,0 28 15 32 18 SSE 1018,9 34 0 0,0
12.10.2018 19:00:00 17,4 14,1 16,0 26 14 28 15 SSE 1018,7 35 0 0,0
12.10.2018 18:00:00 17,1 13,8 16,3 23 12 26 14 SSE 1018,9 38 35 0,0
12.10.2018 17:00:00 17,3 13,9 18,3 20 11 24 13 SSE 1018,9 32 60 0,0
12.10.2018 16:00:00 17,6 14,0 19,5 19 10 23 13 SSE 1018,9 30 60 0,0
12.10.2018 15:00:00 17,2 13,7 19,4 19 10 23 12 S 1018,7 16 60 0,0
12.10.2018 14:00:00 16,9 13,8 20,0 17 9 21 12 SSE 1018,4 16 60 0,0
12.10.2018 13:00:00 16,6 13,9 19,7 18 10 24 13 S 1018,3 14 60 0,0
12.10.2018 12:00:00 16,2 13,4 18,1 19 11 30 16 S 1018,2 15 59 0,0
12.10.2018 11:00:00 16,2 12,9 17,5 26 14 34 18 S 1017,9 15 60 0,0
12.10.2018 10:00:00 16,0 12,6 16,2 30 16 36 20 S 1017,1 14 59 0,0
12.10.2018 09:00:00 15,9 12,4 14,8 29 16 37 20 S 1016,1 17 22 0,0
12.10.2018 08:00:00 15,7 12,3 14,4 33 18 39 21 S 1015,0 15 0 0,0
12.10.2018 07:00:00 15,6 12,4 14,4 33 18 39 21 S 1014,4 14 0 0,0
12.10.2018 06:00:00 15,7 12,7 14,2 29 16 40 22 S 1013,7 15 0 0,0
12.10.2018 05:00:00 15,4 12,6 14,3 34 18 42 23 SSE 1013,2 15 0 0,0
12.10.2018 04:00:00 15,4 12,8 14,1 28 15 32 17 SSE 1013,6 14 0 0,0
12.10.2018 03:00:00 15,7 12,8 14,2 26 14 31 17 SSE 1013,6 15 0 0,0

tt = temperature
td = dewpoint
tt 5cm = temperature 5cm
ff = wind speed
fx = gusts
dd = wind direction
ppp = reduced air pressure
vv = visibility
sd = sunshine duration
rr = precipitation

Next stations